TAM3482 SBFI-SBCT

Flight info

Callsign TAM3482
Flight time 0h 47m
Altitude 33000
Route KAMIL UM548 PUNTO
Aircraft A320/M-SDE3FGHIRWY/LB1

Departure

Time 2026-04-21 22:17
Airport Cataratas International Airport (SBFI)

Arrival

Time 2026-04-21 23:05
Airport Curitiba-Afonso Pena International Airport (SBCT)
Time Latitude Longitude Altitude Speed Heading
2026-04-21 21:58 -25.59733 -54.48808 799 ft 0 kts 221°
2026-04-21 22:08 -25.59721 -54.48797 798 ft 4 kts 215°
2026-04-21 22:08 -25.59698 -54.48783 798 ft 4 kts 191°
2026-04-21 22:08 -25.59675 -54.48786 798 ft 3 kts 135°
2026-04-21 22:09 -25.59673 -54.48788 798 ft 0 kts 131°
2026-04-21 22:11 -25.59698 -54.48757 798 ft 10 kts 133°
2026-04-21 22:12 -25.59764 -54.48673 798 ft 18 kts 131°
2026-04-21 22:12 -25.59845 -54.48556 797 ft 14 kts 103°
2026-04-21 22:12 -25.59844 -54.48538 797 ft 0 kts 75°
2026-04-21 22:13 -25.59843 -54.48536 797 ft 0 kts 75°
2026-04-21 22:13 -25.59842 -54.48532 797 ft 1 kts 71°
2026-04-21 22:13 -25.59835 -54.48520 797 ft 5 kts 57°
2026-04-21 22:14 -25.59814 -54.48432 796 ft 16 kts 124°
2026-04-21 22:14 -25.59889 -54.48337 797 ft 17 kts 131°
2026-04-21 22:14 -25.59970 -54.48235 797 ft 18 kts 131°
2026-04-21 22:14 -25.60054 -54.48127 801 ft 18 kts 131°
2026-04-21 22:15 -25.60138 -54.48018 801 ft 20 kts 131°
2026-04-21 22:15 -25.60237 -54.47935 800 ft 12 kts 101°
2026-04-21 22:15 -25.60196 -54.47941 800 ft 8 kts 307°
2026-04-21 22:15 -25.60191 -54.47948 800 ft 0 kts 310°
2026-04-21 22:16 -25.60156 -54.47994 800 ft 38 kts 310°
2026-04-21 22:16 -25.59811 -54.48437 796 ft 111 kts 311°
2026-04-21 22:17 -25.59177 -54.49248 801 ft 165 kts 311°
2026-04-21 22:17 -25.58339 -54.50265 1039 ft 189 kts 311°
2026-04-21 22:17 -25.57486 -54.51337 1811 ft 186 kts 310°
2026-04-21 22:17 -25.56631 -54.52448 2423 ft 197 kts 311°
2026-04-21 22:18 -25.55695 -54.53669 2780 ft 217 kts 312°
2026-04-21 22:18 -25.54708 -54.54952 3545 ft 219 kts 312°
2026-04-21 22:18 -25.53719 -54.56237 4393 ft 220 kts 312°
2026-04-21 22:18 -25.52484 -54.57297 4977 ft 234 kts 341°
2026-04-21 22:19 -25.50819 -54.57332 5349 ft 259 kts 18°
2026-04-21 22:19 -25.49331 -54.56142 6001 ft 276 kts 52°
2026-04-21 22:19 -25.48618 -54.54143 6761 ft 288 kts 79°
2026-04-21 22:19 -25.48240 -54.51956 7541 ft 291 kts 67°
2026-04-21 22:20 -25.47145 -54.50088 8322 ft 291 kts 44°
2026-04-21 22:20 -25.45614 -54.48620 9152 ft 293 kts 34°
2026-04-21 22:20 -25.43931 -54.47323 9967 ft 297 kts 32°
2026-04-21 22:20 -25.42344 -54.45764 10362 ft 320 kts 52°
2026-04-21 22:21 -25.41422 -54.43448 10674 ft 342 kts 80°
2026-04-21 22:21 -25.41473 -54.40794 11277 ft 351 kts 98°
2026-04-21 22:21 -25.41826 -54.38110 11983 ft 355 kts 98°
2026-04-21 22:21 -25.42198 -54.35394 12699 ft 359 kts 98°
2026-04-21 22:22 -25.42576 -54.32647 13396 ft 363 kts 98°
2026-04-21 22:22 -25.42955 -54.29872 14056 ft 367 kts 98°
2026-04-21 22:22 -25.43337 -54.27058 14651 ft 371 kts 98°
2026-04-21 22:22 -25.43718 -54.24224 15264 ft 375 kts 98°
2026-04-21 22:23 -25.44098 -54.21353 15854 ft 379 kts 98°
2026-04-21 22:23 -25.44481 -54.18454 16445 ft 383 kts 98°
2026-04-21 22:23 -25.44868 -54.15522 17031 ft 387 kts 98°
2026-04-21 22:23 -25.45259 -54.12563 17618 ft 391 kts 98°
2026-04-21 22:24 -25.45654 -54.09575 18195 ft 394 kts 98°
2026-04-21 22:24 -25.46050 -54.06560 18703 ft 398 kts 98°
2026-04-21 22:24 -25.46447 -54.03512 19186 ft 402 kts 98°
2026-04-21 22:24 -25.46847 -54.00432 19663 ft 406 kts 98°
2026-04-21 22:25 -25.47253 -53.97320 20145 ft 411 kts 99°
2026-04-21 22:25 -25.47667 -53.94176 20627 ft 415 kts 99°
2026-04-21 22:25 -25.48086 -53.91004 21105 ft 419 kts 99°
2026-04-21 22:25 -25.48509 -53.87801 21583 ft 423 kts 99°
2026-04-21 22:26 -25.48935 -53.84561 22054 ft 427 kts 99°
2026-04-21 22:26 -25.49361 -53.81296 22530 ft 431 kts 99°
2026-04-21 22:26 -25.49787 -53.77990 23001 ft 436 kts 99°
2026-04-21 22:26 -25.50215 -53.74656 23474 ft 440 kts 99°
2026-04-21 22:27 -25.50652 -53.71245 23885 ft 444 kts 99°
2026-04-21 22:27 -25.51081 -53.67896 24270 ft 447 kts 99°
2026-04-21 22:27 -25.51519 -53.64474 24640 ft 450 kts 99°
2026-04-21 22:27 -25.51961 -53.61032 25013 ft 454 kts 99°
2026-04-21 22:28 -25.52409 -53.57558 25397 ft 457 kts 99°
2026-04-21 22:28 -25.52859 -53.54064 25730 ft 461 kts 99°
2026-04-21 22:28 -25.53313 -53.50531 26070 ft 465 kts 99°
2026-04-21 22:28 -25.53763 -53.46979 26411 ft 468 kts 99°
2026-04-21 22:29 -25.54214 -53.43402 26746 ft 471 kts 100°
2026-04-21 22:29 -25.54669 -53.39800 27079 ft 474 kts 100°
2026-04-21 22:29 -25.55131 -53.36171 27400 ft 477 kts 100°
2026-04-21 22:29 -25.55595 -53.32524 27712 ft 480 kts 100°
2026-04-21 22:30 -25.56060 -53.28855 28026 ft 483 kts 100°
2026-04-21 22:30 -25.56527 -53.25155 28334 ft 486 kts 100°
2026-04-21 22:30 -25.56992 -53.21445 28663 ft 488 kts 100°
2026-04-21 22:30 -25.57455 -53.17713 28977 ft 490 kts 100°
2026-04-21 22:31 -25.57922 -53.13962 29283 ft 493 kts 100°
2026-04-21 22:31 -25.58392 -53.10186 29563 ft 496 kts 101°
2026-04-21 22:31 -25.58862 -53.06400 29853 ft 498 kts 99°
2026-04-21 22:31 -25.59079 -53.02547 30125 ft 503 kts 92°
2026-04-21 22:32 -25.59085 -52.99928 30278 ft 505 kts 92°
2026-04-21 22:32 -25.59089 -52.96032 30546 ft 506 kts 92°
2026-04-21 22:32 -25.59091 -52.92124 30799 ft 508 kts 92°
2026-04-21 22:32 -25.59092 -52.86920 31060 ft 512 kts 92°
2026-04-21 22:33 -25.59094 -52.84244 31210 ft 514 kts 92°
2026-04-21 22:33 -25.59097 -52.80335 31427 ft 516 kts 92°
2026-04-21 22:33 -25.59098 -52.76359 31652 ft 517 kts 92°
2026-04-21 22:33 -25.59098 -52.72376 31978 ft 516 kts 92°
2026-04-21 22:34 -25.59098 -52.68408 32314 ft 515 kts 92°
2026-04-21 22:34 -25.59093 -52.64442 32640 ft 515 kts 92°
2026-04-21 22:34 -25.59088 -52.60483 32950 ft 515 kts 92°
2026-04-21 22:34 -25.59083 -52.56520 33063 ft 512 kts 92°
2026-04-21 22:35 -25.59076 -52.52632 33086 ft 499 kts 92°
2026-04-21 22:35 -25.59059 -52.45018 33086 ft 491 kts 92°
2026-04-21 22:36 -25.59037 -52.33692 33087 ft 490 kts 92°
2026-04-21 22:36 -25.59024 -52.26147 33095 ft 490 kts 92°
2026-04-21 22:37 -25.58989 -52.18602 33108 ft 490 kts 92°
2026-04-21 22:37 -25.58959 -52.11059 33108 ft 490 kts 92°
2026-04-21 22:38 -25.58928 -52.03517 33102 ft 489 kts 92°
2026-04-21 22:38 -25.58886 -51.95979 33119 ft 489 kts 92°
2026-04-21 22:39 -25.58843 -51.88446 33110 ft 489 kts 92°
2026-04-21 22:39 -25.58797 -51.80919 33108 ft 489 kts 92°
2026-04-21 22:40 -25.58748 -51.73402 33121 ft 488 kts 92°
2026-04-21 22:40 -25.58697 -51.65887 33142 ft 488 kts 92°
2026-04-21 22:41 -25.58641 -51.58380 33150 ft 487 kts 92°
2026-04-21 22:41 -25.58576 -51.50877 33142 ft 486 kts 92°
2026-04-21 22:42 -25.58519 -51.43387 33146 ft 486 kts 92°
2026-04-21 22:42 -25.58454 -51.35909 33159 ft 485 kts 92°
2026-04-21 22:43 -25.58379 -51.28442 33130 ft 485 kts 93°
2026-04-21 22:43 -25.58306 -51.20957 33123 ft 486 kts 93°
2026-04-21 22:44 -25.58229 -51.13447 33135 ft 493 kts 93°
2026-04-21 22:44 -25.58156 -51.05718 33132 ft 508 kts 93°
2026-04-21 22:45 -25.58065 -50.97865 33137 ft 511 kts 92°
2026-04-21 22:45 -25.57953 -50.90036 32389 ft 501 kts 92°
2026-04-21 22:46 -25.57897 -50.86204 31460 ft 495 kts 92°
2026-04-21 22:46 -25.57844 -50.82416 30605 ft 488 kts 92°
2026-04-21 22:46 -25.57794 -50.78687 29704 ft 481 kts 92°
2026-04-21 22:46 -25.57744 -50.75013 28776 ft 473 kts 91°
2026-04-21 22:47 -25.57694 -50.71408 27919 ft 465 kts 91°
2026-04-21 22:47 -25.57643 -50.67859 27086 ft 457 kts 91°
2026-04-21 22:47 -25.57594 -50.64367 26336 ft 448 kts 91°
2026-04-21 22:47 -25.57545 -50.61013 25818 ft 435 kts 91°
2026-04-21 22:48 -25.57496 -50.57670 25286 ft 422 kts 91°
2026-04-21 22:48 -25.57451 -50.54503 24777 ft 414 kts 90°
2026-04-21 22:48 -25.57407 -50.51310 24246 ft 415 kts 90°
2026-04-21 22:48 -25.57363 -50.48108 23707 ft 417 kts 90°
2026-04-21 22:49 -25.57318 -50.44894 23099 ft 417 kts 90°
2026-04-21 22:49 -25.57269 -50.41687 22569 ft 416 kts 90°
2026-04-21 22:49 -25.57217 -50.38488 22061 ft 414 kts 90°
2026-04-21 22:49 -25.57163 -50.35321 21597 ft 411 kts 90°
2026-04-21 22:50 -25.57107 -50.32190 21012 ft 401 kts 90°
2026-04-21 22:50 -25.57054 -50.29156 20538 ft 387 kts 90°
2026-04-21 22:50 -25.57003 -50.26221 20066 ft 375 kts 89°
2026-04-21 22:50 -25.56952 -50.23374 19614 ft 364 kts 89°
2026-04-21 22:51 -25.56901 -50.20581 19170 ft 363 kts 89°
2026-04-21 22:51 -25.56851 -50.17776 18723 ft 364 kts 89°
2026-04-21 22:51 -25.56802 -50.14969 18253 ft 366 kts 89°
2026-04-21 22:51 -25.56754 -50.12149 17781 ft 365 kts 89°
2026-04-21 22:52 -25.56709 -50.09353 17378 ft 363 kts 89°
2026-04-21 22:52 -25.56663 -50.06564 16957 ft 361 kts 89°
2026-04-21 22:52 -25.56677 -50.03787 16543 ft 360 kts 92°
2026-04-21 22:52 -25.56788 -50.01029 16120 ft 358 kts 94°
2026-04-21 22:53 -25.56950 -49.98283 15710 ft 356 kts 94°
2026-04-21 22:53 -25.57126 -49.95551 15314 ft 355 kts 94°
2026-04-21 22:53 -25.57298 -49.92832 14909 ft 352 kts 94°
2026-04-21 22:53 -25.57454 -49.90177 14509 ft 339 kts 93°
2026-04-21 22:54 -25.57594 -49.87617 14137 ft 326 kts 93°
2026-04-21 22:54 -25.57720 -49.85155 13732 ft 315 kts 93°
2026-04-21 22:54 -25.57837 -49.82770 13365 ft 304 kts 93°
2026-04-21 22:54 -25.57949 -49.80479 13013 ft 293 kts 93°
2026-04-21 22:55 -25.58057 -49.78233 12667 ft 292 kts 93°
2026-04-21 22:55 -25.58165 -49.75997 12316 ft 290 kts 93°
2026-04-21 22:55 -25.58275 -49.73770 11972 ft 291 kts 93°
2026-04-21 22:55 -25.58385 -49.71529 11606 ft 291 kts 93°
2026-04-21 22:56 -25.58496 -49.69292 11249 ft 291 kts 93°
2026-04-21 22:56 -25.58608 -49.67053 10881 ft 292 kts 94°
2026-04-21 22:56 -25.58715 -49.64838 10509 ft 292 kts 94°
2026-04-21 22:56 -25.58804 -49.62590 10186 ft 292 kts 93°
2026-04-21 22:57 -25.58877 -49.60325 9731 ft 296 kts 93°
2026-04-21 22:57 -25.58942 -49.58045 9292 ft 296 kts 92°
2026-04-21 22:57 -25.59008 -49.55769 8773 ft 293 kts 92°
2026-04-21 22:57 -25.58955 -49.53550 8290 ft 283 kts 81°
2026-04-21 22:58 -25.58397 -49.51504 7909 ft 277 kts 64°
2026-04-21 22:58 -25.57404 -49.49796 7818 ft 283 kts 49°
2026-04-21 22:58 -25.56011 -49.48234 7764 ft 287 kts 44°
2026-04-21 22:58 -25.54585 -49.46685 7699 ft 288 kts 44°
2026-04-21 22:59 -25.53156 -49.45131 7644 ft 288 kts 44°
2026-04-21 22:59 -25.51730 -49.43582 7593 ft 287 kts 44°
2026-04-21 22:59 -25.50325 -49.42058 7532 ft 276 kts 44°
2026-04-21 22:59 -25.48991 -49.40610 7475 ft 261 kts 44°
2026-04-21 23:00 -25.47733 -49.39246 7398 ft 246 kts 44°
2026-04-21 23:00 -25.46525 -49.37941 7245 ft 240 kts 44°
2026-04-21 23:00 -25.45335 -49.36658 7005 ft 237 kts 44°
2026-04-21 23:00 -25.44159 -49.35392 6751 ft 235 kts 44°
2026-04-21 23:01 -25.43114 -49.34023 6463 ft 234 kts 59°
2026-04-21 23:01 -25.42515 -49.32322 5980 ft 241 kts 79°
2026-04-21 23:01 -25.42502 -49.30500 5756 ft 236 kts 100°
2026-04-21 23:01 -25.43035 -49.28813 5522 ft 231 kts 120°
2026-04-21 23:02 -25.44027 -49.27435 5251 ft 229 kts 135°
2026-04-21 23:02 -25.45146 -49.26190 4959 ft 227 kts 134°
2026-04-21 23:02 -25.46231 -49.24979 4666 ft 216 kts 134°
2026-04-21 23:02 -25.47262 -49.23828 4413 ft 203 kts 133°
2026-04-21 23:03 -25.48217 -49.22761 4134 ft 188 kts 133°
2026-04-21 23:03 -25.49084 -49.21792 3908 ft 167 kts 133°
2026-04-21 23:03 -25.49857 -49.20927 3693 ft 151 kts 133°
2026-04-21 23:03 -25.50572 -49.20127 3495 ft 143 kts 133°
2026-04-21 23:04 -25.51270 -49.19346 3293 ft 142 kts 134°
2026-04-21 23:04 -25.51968 -49.18570 3090 ft 141 kts 133°
2026-04-21 23:04 -25.52638 -49.17815 2996 ft 127 kts 134°
2026-04-21 23:04 -25.53088 -49.17310 2997 ft 52 kts 135°
2026-04-21 23:05 -25.53330 -49.17038 2995 ft 48 kts 135°
2026-04-21 23:05 -25.53521 -49.16822 2994 ft 23 kts 134°
2026-04-21 23:05 -25.53608 -49.16802 2994 ft 14 kts 248°
2026-04-21 23:05 -25.53611 -49.16898 2995 ft 11 kts 270°
2026-04-21 23:06 -25.53611 -49.16906 2995 ft 0 kts 270°
2026-04-21 23:08 -25.53612 -49.16930 2995 ft 6 kts 270°
2026-04-21 23:08 -25.53619 -49.16979 2996 ft 7 kts 244°
2026-04-21 23:09 -25.53671 -49.17012 2996 ft 11 kts 204°
2026-04-21 23:09 -25.53720 -49.17061 2996 ft 0 kts 225°
2026-04-21 23:09 -25.53721 -49.17062 2996 ft 2 kts 225°